COSMOS 1947 (GLONASS)

Satellite information

Favourite Embed

Satellite Type and Status

PAYLOADIN ORBIT

Key statistics

Satellite COSMOS 1947 (GLONASS) at a glance.

Uptime

13721

Days in orbit

Revolutions

≈ 2.1

Per day

Orbit

MEO

Medium Earth Orbit

Inclination

64.9

Latest

Satellite identification and parameters

Extended collection of information and parameters for COSMOS 1947 (GLONASS).

Object identification

Identified? True

Debris? False

Object name: COSMOS 1947 (GLONASS)

International designator: 1988-043B

Object number (NORAD): 19164

Object ID (CCSDS): 19164

Country: COMMONWEALTH OF INDEPENDENT STATES (CIS)

Current information (Y/N): Y

RCS size: LARGE

Orbital parameters

Period: 675.727 minutes

Inclination: 64.8567 deg

SMA: 25507.873 km

Apoapsis: 19190.55 km

Periapsis: 19068.926 km

RAAN: 79.8783 deg

Eccentricy: 0.00238406

Argument of periapsis: 221.2469 deg

Mean anomaly: 139.9118 deg

Mean motion: 2.13103895 rev/day

Mean motion (dot): -0.00000047 rev/day2

B* drag term: 0.0 1/REarth

Two-line elements (TLE)

Creation date: Dec. 14, 2025, 3:07 a.m.

Reference frame: TEME

Reference center: EARTH

Epoch: Dec. 13, 2025, 8:36 a.m. UTC

TLE line 0: 0 COSMOS 1947 (GLONASS)

TLE line 1: 1 19164U 88043B 25347.35877937 -.00000047 00000-0 00000-0 0 9996

TLE line 2: 2 19164 64.8567 79.8783 0023841 221.2469 139.9118 2.13103895287343

Live tracking on map

Real-time ground track for satellite COSMOS 1947 (GLONASS).

In-orbit conjunctions

There are no conjunctions computed for COSMOS 1947 (GLONASS), at the moment. Check back to stay up to date, as we update our databases every day.

Go to all conjunctions

Associated space launch

GLONASS navigation satellites

COSMOS 1947 (GLONASS) was lifted into orbit during the mission ‘Proton | Uragan 26 to 28’, on board a Proton space rocket.

The launch took place on May 21, 1988, 5:57 p.m. from 200/39 (200L).

For more information about the launch, click the button.

Launch to space Proton | Uragan 26 to 28
Proton | Uragan 26 to 28

Agency: N/A

Status: Launch Successful

Launch date: May 21, 1988, 5:57 p.m. UTC

Rocket: Proton

Launch pad: 200/39 (200L)

Location: Baikonur Cosmodrome, Republic of Kazakhstan

...

Latest news about this satellite

There are no fresh news available about this satellite. Check back as we update our databases every day.


Newsletter sign-up

Weekly statistics, charts and insights to help you stay on top of the space industry.